Voltar ao catálogo

STARLINK-35155

AtivoComunicaçõesVLEO
NORAD 65935·PAYLOAD·🇺🇸 United States

Lançado Oct 8, 2025 de Vandenberg Space Force Base

Loading…

Próximas Passagens (próximas 24 horas)

TLE

AtualizadoSource: CelesTrak SupGP

Época: Sep 14, 2026, 21:21 UTC

1 65935C 25225AB  26257.89006944 -.00010412  00000+0 -30737-3 0  2575
2 65935  53.1591   3.8048 0001356  71.5632 108.5159 15.34420839    15

Acompanhe STARLINK-35155 em tempo real com AllMySat

Download on the App Store